<?xml version="1.0"?>
<gpx xmlns="http://www.topografix.com/GPX/1/1" xmlns:xsi="http://www.w3.org/2001/XMLSchema-instance" version="1.1" creator="GPX RubyGem 1.0.0 -- http://dougfales.github.io/gpx/" xsi:schemaLocation="http://www.topografix.com/GPX/1/1 http://www.topografix.com/GPX/1/1/gpx.xsd">
  <metadata>
    <name/>
    <time>2026-05-07T23:16:58+00:00</time>
    <bound minlat="90.0" minlon="180.0" maxlat="-90.0" maxlon="-180.0"/>
  </metadata>
  <trk>
    <name/>
    <trkseg>
      <trkpt lat="41.473898" lon="2.125358">
        <time>1970-01-01T00:00:00+00:00</time>
        <ele>138.0</ele>
      </trkpt>
      <trkpt lat="41.473935" lon="2.125194">
        <time>1970-01-01T00:00:00+00:00</time>
        <ele>139.0</ele>
      </trkpt>
      <trkpt lat="41.47408" lon="2.125073">
        <time>1970-01-01T00:00:00+00:00</time>
        <ele>140.0</ele>
      </trkpt>
      <trkpt lat="41.47411" lon="2.124969">
        <time>1970-01-01T00:00:00+00:00</time>
        <ele>140.0</ele>
      </trkpt>
      <trkpt lat="41.474114" lon="2.124866">
        <time>1970-01-01T00:00:00+00:00</time>
        <ele>140.0</ele>
      </trkpt>
      <trkpt lat="41.474104" lon="2.124765">
        <time>1970-01-01T00:00:00+00:00</time>
        <ele>140.0</ele>
      </trkpt>
      <trkpt lat="41.47401" lon="2.124373">
        <time>1970-01-01T00:00:00+00:00</time>
        <ele>143.0</ele>
      </trkpt>
      <trkpt lat="41.47396" lon="2.123679">
        <time>1970-01-01T00:00:00+00:00</time>
        <ele>149.0</ele>
      </trkpt>
      <trkpt lat="41.473978" lon="2.123587">
        <time>1970-01-01T00:00:00+00:00</time>
        <ele>148.0</ele>
      </trkpt>
      <trkpt lat="41.47414" lon="2.123329">
        <time>1970-01-01T00:00:00+00:00</time>
        <ele>149.0</ele>
      </trkpt>
      <trkpt lat="41.474277" lon="2.123218">
        <time>1970-01-01T00:00:00+00:00</time>
        <ele>149.0</ele>
      </trkpt>
      <trkpt lat="41.474361" lon="2.12327">
        <time>1970-01-01T00:00:00+00:00</time>
        <ele>148.0</ele>
      </trkpt>
      <trkpt lat="41.474468" lon="2.123243">
        <time>1970-01-01T00:00:00+00:00</time>
        <ele>147.0</ele>
      </trkpt>
      <trkpt lat="41.474519" lon="2.123191">
        <time>1970-01-01T00:00:00+00:00</time>
        <ele>147.0</ele>
      </trkpt>
      <trkpt lat="41.474536" lon="2.123098">
        <time>1970-01-01T00:00:00+00:00</time>
        <ele>148.0</ele>
      </trkpt>
      <trkpt lat="41.474514" lon="2.122827">
        <time>1970-01-01T00:00:00+00:00</time>
        <ele>151.0</ele>
      </trkpt>
      <trkpt lat="41.474501" lon="2.122773">
        <time>1970-01-01T00:00:00+00:00</time>
        <ele>151.0</ele>
      </trkpt>
      <trkpt lat="41.474501" lon="2.122773">
        <time>1970-01-01T00:00:00+00:00</time>
        <ele>151.0</ele>
      </trkpt>
      <trkpt lat="41.474514" lon="2.122827">
        <time>1970-01-01T00:00:00+00:00</time>
        <ele>151.0</ele>
      </trkpt>
      <trkpt lat="41.474536" lon="2.123098">
        <time>1970-01-01T00:00:00+00:00</time>
        <ele>148.0</ele>
      </trkpt>
      <trkpt lat="41.474519" lon="2.123191">
        <time>1970-01-01T00:00:00+00:00</time>
        <ele>147.0</ele>
      </trkpt>
      <trkpt lat="41.474468" lon="2.123243">
        <time>1970-01-01T00:00:00+00:00</time>
        <ele>147.0</ele>
      </trkpt>
      <trkpt lat="41.474361" lon="2.12327">
        <time>1970-01-01T00:00:00+00:00</time>
        <ele>148.0</ele>
      </trkpt>
      <trkpt lat="41.474277" lon="2.123218">
        <time>1970-01-01T00:00:00+00:00</time>
        <ele>149.0</ele>
      </trkpt>
      <trkpt lat="41.47414" lon="2.123329">
        <time>1970-01-01T00:00:00+00:00</time>
        <ele>149.0</ele>
      </trkpt>
      <trkpt lat="41.473978" lon="2.123587">
        <time>1970-01-01T00:00:00+00:00</time>
        <ele>148.0</ele>
      </trkpt>
      <trkpt lat="41.47396" lon="2.123679">
        <time>1970-01-01T00:00:00+00:00</time>
        <ele>149.0</ele>
      </trkpt>
      <trkpt lat="41.47401" lon="2.124373">
        <time>1970-01-01T00:00:00+00:00</time>
        <ele>143.0</ele>
      </trkpt>
      <trkpt lat="41.474104" lon="2.124765">
        <time>1970-01-01T00:00:00+00:00</time>
        <ele>140.0</ele>
      </trkpt>
      <trkpt lat="41.474114" lon="2.124866">
        <time>1970-01-01T00:00:00+00:00</time>
        <ele>140.0</ele>
      </trkpt>
      <trkpt lat="41.47411" lon="2.124969">
        <time>1970-01-01T00:00:00+00:00</time>
        <ele>140.0</ele>
      </trkpt>
      <trkpt lat="41.47408" lon="2.125073">
        <time>1970-01-01T00:00:00+00:00</time>
        <ele>140.0</ele>
      </trkpt>
      <trkpt lat="41.473935" lon="2.125194">
        <time>1970-01-01T00:00:00+00:00</time>
        <ele>139.0</ele>
      </trkpt>
      <trkpt lat="41.473898" lon="2.125358">
        <time>1970-01-01T00:00:00+00:00</time>
        <ele>138.0</ele>
      </trkpt>
    </trkseg>
  </trk>
</gpx>
